Time,TemperatureF,DewpointF,PressureIn,WindDirection,WindDirectionDegrees,WindSpeedMPH,WindSpeedGustMPH,Humidity,HourlyPrecipIn,Conditions,Clouds,dailyrainin,SoftwareType,DateUTC
2013-01-10 00:08:00,55.4,54.0,30.30,East,94,2.0,4.0,96,0.10,,,0.00,weatherlink.com 1.10,2013-01-10 06:08:00,
2013-01-10 00:23:00,55.5,54.0,30.30,West,262,1.0,4.0,96,0.07,,,0.00,weatherlink.com 1.10,2013-01-10 06:23:00,
2013-01-10 00:38:00,55.6,55.0,30.29,NE,56,0.0,3.0,96,0.00,,,0.00,weatherlink.com 1.10,2013-01-10 06:38:00,
2013-01-10 00:53:00,55.7,55.0,30.29,East,81,2.0,4.0,96,0.00,,,0.00,weatherlink.com 1.10,2013-01-10 06:53:00,
2013-01-10 01:08:00,55.7,55.0,30.28,East,92,2.0,4.0,96,0.00,,,0.00,weatherlink.com 1.10,2013-01-10 07:08:00,
2013-01-10 01:23:00,55.8,55.0,30.28,East,101,2.0,3.0,96,0.00,,,0.00,weatherlink.com 1.10,2013-01-10 07:23:00,
2013-01-10 01:38:00,55.9,55.0,30.28,ENE,71,1.0,6.0,96,0.01,,,0.01,weatherlink.com 1.10,2013-01-10 07:38:00,
2013-01-10 01:53:00,55.9,55.0,30.29,East,94,0.0,2.0,96,0.01,,,0.01,weatherlink.com 1.10,2013-01-10 07:53:00,
2013-01-10 02:08:00,55.9,55.0,30.28,ENE,65,1.0,3.0,96,0.01,,,0.01,weatherlink.com 1.10,2013-01-10 08:08:00,
2013-01-10 02:23:00,56.0,55.0,30.27,East,82,1.0,2.0,96,0.02,,,0.02,weatherlink.com 1.10,2013-01-10 08:23:00,
2013-01-10 02:38:00,56.2,55.0,30.26,NE,47,2.0,4.0,96,0.03,,,0.04,weatherlink.com 1.10,2013-01-10 08:38:00,
2013-01-10 02:53:00,56.3,55.0,30.25,East,86,2.0,6.0,96,0.04,,,0.05,weatherlink.com 1.10,2013-01-10 08:53:00,
2013-01-10 03:08:00,56.3,55.0,30.25,East,85,1.0,3.0,96,0.06,,,0.07,weatherlink.com 1.10,2013-01-10 09:08:00,
2013-01-10 03:23:00,56.3,55.0,30.24,NE,56,2.0,7.0,96,0.06,,,0.08,weatherlink.com 1.10,2013-01-10 09:23:00,
2013-01-10 03:38:00,56.4,56.0,30.23,ENE,78,1.0,4.0,97,0.04,,,0.08,weatherlink.com 1.10,2013-01-10 09:38:00,
2013-01-10 03:53:00,56.5,56.0,30.22,East,94,0.0,4.0,97,0.03,,,0.08,weatherlink.com 1.10,2013-01-10 09:53:00,
2013-01-10 04:08:00,56.5,56.0,30.22,ENE,78,2.0,3.0,97,0.04,,,0.11,weatherlink.com 1.10,2013-01-10 10:08:00,
2013-01-10 04:23:00,56.7,56.0,30.20,East,85,1.0,2.0,97,0.14,,,0.22,weatherlink.com 1.10,2013-01-10 10:23:00,
2013-01-10 04:38:00,56.7,56.0,30.20,ENE,61,1.0,2.0,97,0.15,,,0.23,weatherlink.com 1.10,2013-01-10 10:38:00,
2013-01-10 04:53:00,56.8,56.0,30.19,ENE,68,0.0,2.0,97,0.16,,,0.24,weatherlink.com 1.10,2013-01-10 10:53:00,
2013-01-10 05:08:00,57.3,57.0,30.19,East,101,1.0,3.0,97,0.14,,,0.25,weatherlink.com 1.10,2013-01-10 11:08:00,
2013-01-10 05:24:00,57.6,57.0,30.18,SSE,148,0.0,4.0,97,0.06,,,0.28,weatherlink.com 1.10,2013-01-10 11:24:00,
2013-01-10 05:39:00,57.9,57.0,30.18,South,179,1.0,7.0,97,0.07,,,0.30,weatherlink.com 1.10,2013-01-10 11:39:00,
2013-01-10 05:54:00,58.2,57.0,30.18,South,177,3.0,4.0,97,0.07,,,0.31,weatherlink.com 1.10,2013-01-10 11:54:00,
2013-01-10 06:09:00,58.4,58.0,30.20,SE,144,1.0,3.0,97,0.07,,,0.32,weatherlink.com 1.10,2013-01-10 12:09:00,
2013-01-10 06:24:00,58.8,58.0,30.19,South,183,1.0,4.0,97,0.04,,,0.32,weatherlink.com 1.10,2013-01-10 12:24:00,
2013-01-10 06:40:00,59.1,58.0,30.19,NE,50,2.0,3.0,97,0.03,,,0.33,weatherlink.com 1.10,2013-01-10 12:40:00,
2013-01-10 06:54:00,59.2,58.0,30.20,ESE,113,0.0,4.0,97,0.05,,,0.36,weatherlink.com 1.10,2013-01-10 12:54:00,
2013-01-10 07:09:00,59.3,59.0,30.21,NE,45,3.0,5.0,97,0.06,,,0.38,weatherlink.com 1.10,2013-01-10 13:09:00,
2013-01-10 07:24:00,59.7,59.0,30.21,SSE,160,3.0,6.0,97,0.12,,,0.44,weatherlink.com 1.10,2013-01-10 13:24:00,
2013-01-10 07:39:00,60.3,60.0,30.21,SSE,148,2.0,4.0,97,0.18,,,0.51,weatherlink.com 1.10,2013-01-10 13:39:00,
2013-01-10 07:54:00,60.5,60.0,30.22,SSE,167,1.0,8.0,97,0.17,,,0.53,weatherlink.com 1.10,2013-01-10 13:54:00,
2013-01-10 08:09:00,60.5,59.0,30.22,South,175,3.0,3.0,96,0.17,,,0.55,weatherlink.com 1.10,2013-01-10 14:09:00,
2013-01-10 08:24:00,60.5,59.0,30.20,SE,134,0.0,3.0,96,0.11,,,0.56,weatherlink.com 1.10,2013-01-10 14:24:00,
2013-01-10 08:39:00,60.5,59.0,30.21,South,179,2.0,3.0,96,0.06,,,0.57,weatherlink.com 1.10,2013-01-10 14:39:00,
2013-01-10 08:55:00,60.7,60.0,30.21,South,169,1.0,4.0,96,0.04,,,0.58,weatherlink.com 1.10,2013-01-10 14:55:00,
2013-01-10 09:10:00,60.9,60.0,30.21,South,190,1.0,3.0,96,0.04,,,0.59,weatherlink.com 1.10,2013-01-10 15:10:00,
2013-01-10 09:25:00,61.1,60.0,30.21,SSE,152,0.0,6.0,96,0.04,,,0.60,weatherlink.com 1.10,2013-01-10 15:25:00,
2013-01-10 09:40:00,61.3,60.0,30.21,SSE,148,1.0,5.0,96,0.09,,,0.66,weatherlink.com 1.10,2013-01-10 15:40:00,
2013-01-10 09:55:00,61.5,60.0,30.20,East,99,0.0,3.0,96,0.15,,,0.73,weatherlink.com 1.10,2013-01-10 15:55:00,
2013-01-10 10:10:00,61.8,61.0,30.19,SE,142,0.0,2.0,97,0.15,,,0.74,weatherlink.com 1.10,2013-01-10 16:10:00,
2013-01-10 10:25:00,62.1,61.0,30.19,South,169,1.0,3.0,97,0.15,,,0.75,weatherlink.com 1.10,2013-01-10 16:25:00,
2013-01-10 10:40:00,62.2,61.0,30.19,SW,218,1.0,5.0,97,0.10,,,0.76,weatherlink.com 1.10,2013-01-10 16:40:00,
2013-01-10 10:55:00,62.3,61.0,30.18,ENE,75,0.0,3.0,96,0.03,,,0.76,weatherlink.com 1.10,2013-01-10 16:55:00,
2013-01-10 11:10:00,62.2,61.0,30.18,East,90,1.0,2.0,96,0.03,,,0.77,weatherlink.com 1.10,2013-01-10 17:10:00,
2013-01-10 11:25:00,62.2,61.0,30.16,SSE,149,1.0,3.0,96,0.02,,,0.77,weatherlink.com 1.10,2013-01-10 17:25:00,
2013-01-10 11:40:00,62.2,61.0,30.15,SSW,203,0.0,6.0,96,0.04,,,0.80,weatherlink.com 1.10,2013-01-10 17:40:00,
2013-01-10 11:55:00,62.4,62.0,30.14,SE,143,0.0,4.0,97,0.06,,,0.82,weatherlink.com 1.10,2013-01-10 17:55:00,
2013-01-10 12:10:00,62.6,62.0,30.13,ESE,107,1.0,6.0,97,0.08,,,0.85,weatherlink.com 1.10,2013-01-10 18:10:00,
2013-01-10 12:25:00,62.8,62.0,30.12,SSW,198,1.0,5.0,97,0.10,,,0.87,weatherlink.com 1.10,2013-01-10 18:25:00,
2013-01-10 12:40:00,63.0,62.0,30.11,SSW,195,1.0,4.0,97,0.06,,,0.87,weatherlink.com 1.10,2013-01-10 18:40:00,
2013-01-10 12:55:00,63.3,63.0,30.09,ESE,120,0.0,3.0,97,0.05,,,0.88,weatherlink.com 1.10,2013-01-10 18:55:00,
2013-01-10 13:10:00,63.9,63.0,30.08,SSW,194,3.0,5.0,97,0.03,,,0.88,weatherlink.com 1.10,2013-01-10 19:10:00,
2013-01-10 13:25:00,64.1,63.0,30.04,ESE,117,0.0,3.0,96,0.03,,,0.90,weatherlink.com 1.10,2013-01-10 19:25:00,
2013-01-10 13:40:00,64.4,63.0,30.04,SSE,156,3.0,4.0,96,0.03,,,0.90,weatherlink.com 1.10,2013-01-10 19:40:00,
2013-01-10 13:55:00,64.8,64.0,30.02,South,175,2.0,6.0,96,0.02,,,0.90,weatherlink.com 1.10,2013-01-10 19:55:00,
2013-01-10 14:11:00,65.4,64.0,30.02,SSW,198,3.0,7.0,94,0.02,,,0.90,weatherlink.com 1.10,2013-01-10 20:11:00,
2013-01-10 14:26:00,65.6,64.0,30.02,SSE,148,2.0,6.0,93,0.00,,,0.90,weatherlink.com 1.10,2013-01-10 20:26:00,
2013-01-10 14:40:00,65.6,63.0,30.02,South,170,3.0,6.0,92,0.00,,,0.90,weatherlink.com 1.10,2013-01-10 20:40:00,
2013-01-10 14:56:00,65.8,63.0,30.01,ESE,123,3.0,7.0,91,0.00,,,0.90,weatherlink.com 1.10,2013-01-10 20:56:00,
2013-01-10 15:11:00,65.8,63.0,29.99,South,190,6.0,11.0,90,0.00,,,0.90,weatherlink.com 1.10,2013-01-10 21:11:00,
2013-01-10 15:26:00,66.0,63.0,29.98,SSW,197,7.0,17.0,89,0.00,,,0.90,weatherlink.com 1.10,2013-01-10 21:26:00,
2013-01-10 15:41:00,65.7,62.0,29.94,East,94,5.0,11.0,89,0.00,,,0.90,weatherlink.com 1.10,2013-01-10 21:41:00,
2013-01-10 16:11:00,65.6,62.0,29.93,SSW,207,2.0,8.0,88,0.00,,,0.90,weatherlink.com 1.10,2013-01-10 22:11:00,
2013-01-10 16:26:00,65.4,62.0,29.95,SSE,155,3.0,8.0,88,0.00,,,0.90,weatherlink.com 1.10,2013-01-10 22:26:00,
2013-01-10 16:41:00,65.1,63.0,29.94,SSE,148,2.0,7.0,91,0.00,,,0.90,weatherlink.com 1.10,2013-01-10 22:41:00,
2013-01-10 16:56:00,65.3,63.0,29.94,SSW,194,1.0,6.0,92,0.00,,,0.90,weatherlink.com 1.10,2013-01-10 22:56:00,
2013-01-10 17:10:00,65.6,63.0,29.93,SSW,200,1.0,7.0,92,0.00,,,0.90,weatherlink.com 1.10,2013-01-10 23:10:00,
2013-01-10 17:25:00,66.0,63.0,29.93,SW,224,5.0,8.0,91,0.00,,,0.90,weatherlink.com 1.10,2013-01-10 23:25:00,
2013-01-10 17:40:00,66.5,64.0,29.92,SSE,162,1.0,8.0,90,0.00,,,0.90,weatherlink.com 1.10,2013-01-10 23:40:00,
2013-01-10 18:11:00,67.2,64.0,29.93,SSE,165,2.0,13.0,89,0.00,,,0.90,weatherlink.com 1.10,2013-01-11 00:11:00,
2013-01-10 18:26:00,67.4,64.0,29.93,SE,132,3.0,12.0,88,0.00,,,0.90,weatherlink.com 1.10,2013-01-11 00:26:00,
2013-01-10 18:41:00,67.6,64.0,29.94,SSE,167,5.0,10.0,88,0.00,,,0.90,weatherlink.com 1.10,2013-01-11 00:41:00,
2013-01-10 18:56:00,67.6,64.0,29.94,SSE,153,4.0,10.0,87,0.00,,,0.90,weatherlink.com 1.10,2013-01-11 00:56:00,
2013-01-10 19:11:00,67.7,64.0,29.94,South,186,9.0,9.0,87,0.00,,,0.90,weatherlink.com 1.10,2013-01-11 01:11:00,
2013-01-10 19:26:00,67.4,64.0,29.95,SSW,199,4.0,9.0,87,0.00,,,0.90,weatherlink.com 1.10,2013-01-11 01:26:00,
2013-01-10 19:41:00,67.2,63.0,29.97,SSW,200,3.0,8.0,87,0.00,,,0.90,weatherlink.com 1.10,2013-01-11 01:41:00,
2013-01-10 19:56:00,66.9,63.0,29.98,South,190,2.0,8.0,88,0.00,,,0.90,weatherlink.com 1.10,2013-01-11 01:56:00,
2013-01-10 20:11:00,66.3,63.0,29.98,South,174,2.0,11.0,89,0.00,,,0.90,weatherlink.com 1.10,2013-01-11 02:11:00,
2013-01-10 20:26:00,65.9,63.0,29.98,WSW,255,3.0,6.0,89,0.00,,,0.90,weatherlink.com 1.10,2013-01-11 02:26:00,
2013-01-10 20:41:00,65.7,62.0,29.98,WSW,245,2.0,8.0,89,0.00,,,0.90,weatherlink.com 1.10,2013-01-11 02:41:00,
2013-01-10 20:56:00,65.4,62.0,29.98,SSW,201,1.0,5.0,89,0.00,,,0.90,weatherlink.com 1.10,2013-01-11 02:56:00,
2013-01-10 21:11:00,65.2,62.0,29.98,SSW,212,2.0,5.0,89,0.00,,,0.90,weatherlink.com 1.10,2013-01-11 03:11:00,
2013-01-10 21:26:00,65.0,62.0,29.97,WSW,238,2.0,6.0,90,0.00,,,0.90,weatherlink.com 1.10,2013-01-11 03:26:00,
2013-01-10 21:41:00,64.7,62.0,29.97,WSW,257,4.0,6.0,92,0.02,,,0.92,weatherlink.com 1.10,2013-01-11 03:41:00,
2013-01-10 21:56:00,64.1,62.0,29.98,SW,232,1.0,3.0,93,0.02,,,0.92,weatherlink.com 1.10,2013-01-11 03:56:00,
2013-01-10 22:11:00,63.7,62.0,29.98,SSE,152,1.0,3.0,94,0.02,,,0.92,weatherlink.com 1.10,2013-01-11 04:11:00,
2013-01-10 22:26:00,63.5,62.0,29.97,SSW,207,1.0,4.0,94,0.03,,,0.93,weatherlink.com 1.10,2013-01-11 04:26:00,
2013-01-10 22:56:00,63.2,62.0,29.97,South,191,2.0,3.0,94,0.01,,,0.93,weatherlink.com 1.10,2013-01-11 04:56:00,
2013-01-10 23:11:00,63.2,62.0,29.96,SSW,194,1.0,5.0,94,0.03,,,0.95,weatherlink.com 1.10,2013-01-11 05:11:00,
2013-01-10 23:26:00,63.1,61.0,29.96,ESE,119,3.0,6.0,94,0.02,,,0.95,weatherlink.com 1.10,2013-01-11 05:26:00,
2013-01-10 23:41:00,62.9,62.0,29.96,SSW,200,1.0,7.0,95,0.08,,,1.01,weatherlink.com 1.10,2013-01-11 05:41:00,
2013-01-10 23:56:00,62.7,61.0,29.97,SSW,205,4.0,6.0,95,0.11,,,1.04,weatherlink.com 1.10,2013-01-11 05:56:00,